Regional Weather Roundup
Issued by NWS

Home | Current Version | Previous Version | Text Only | Print | Product List | Glossary On
Versions: 1 2 3 4 5 6 7 8 9 10 11 12 13 14 15 16 17 18 19 20 21 22 23 24 25 26 27 28 29 30 31 32 33 34 35 36 37 38 39 40 41 42 43 44 45 46 47 48 49 50
000
ASUS43 KMPX 161810
RWRMN
WEATHER ROUNDUP FOR MINNESOTA
NATIONAL WEATHER SERVICE TWIN CITIES/CHANHASSEN MN
1200 PM CST MON JAN 16 2017


NOTE: "FAIR" INDICATES FEW OR NO CLOUDS BELOW 12,000 FEET WITH NO
SIGNIFICANT WEATHER AND/OR OBSTRUCTIONS TO VISIBILITY. N/A MEANS
CURRENT SKY AND/OR WEATHER CONDITIONS ARE NOT AVAILABLE.

MNZ060>063-068>070-161900-
   Twin Cities Metro

CITY           SKY/WX    TMP DP  RH WIND       PRES   REMARKS
TWIN CITIES    CLOUDY    27  17  66 E6        30.14F WCI  20
6HR MIN TEMP:  14; 6HR MAX TEMP:  27;

ST PAUL        CLOUDY    26  19  74 CALM      30.15F
CRYSTAL        CLOUDY    26  16  65 SE3       30.13F
BLAINE         PTSUNNY   27  19  74 MISG      30.13F
LAKEVILLE      CLOUDY    21  18  86 NE3       30.12F
EDEN PRAIRIE   CLOUDY    26  19  74 CALM      30.12F HAZE
6HR MIN TEMP:  14; 6HR MAX TEMP:  27;

SOUTH ST PAUL  CLOUDY    26  18  72 CALM      30.14F
LAKE ELMO      PTSUNNY   27  19  74 CALM      30.15F
$$
MNZ001>005-007-008-013>017-022>024-027-028-161900-
   Northwest Minnesota

CITY           SKY/WX    TMP DP  RH WIND       PRES   REMARKS
BEMIDJI        SUNNY     22  21  95 CALM      30.05S
HALLOCK        CLOUDY    10   5  79 CALM      30.06F
ROSEAU         CLOUDY    16   9  73 CALM      30.04F
WARROAD        CLOUDY    18   9  68 CALM      30.05F
THIEF RVR FALL CLOUDY    18  10  71 S8        30.06F WCI   8
CROOKSTON      CLOUDY    12   9  85 S6        30.08F WCI   3
FOSSTON        CLOUDY    21  12  68 S10       30.06F WCI  10
DETROIT LAKES  CLOUDY    19  19 100 CALM      30.07F FOG
MOORHEAD       CLOUDY    14  10  85 S3        30.09F
PARK RAPIDS    CLOUDY    18  14  84 SE5       30.05F FOG     WCI  11
MAHNOMEN       FAIR      18  14  84 SW7       30.07F WCI   9
$$
MNZ006-009>011-018-025>026-161900-
   North Central Minnesota

CITY           SKY/WX    TMP DP  RH WIND       PRES   REMARKS
BAUDETTE       CLOUDY    18  10  71 E3        30.04F
FLAG ISLAND    CLOUDY    12   7  79 SE8       30.05S WCI   1
INTL FALLS     SUNNY     25  14  63 NW3       30.06F
6HR MIN TEMP:  -2; 6HR MAX TEMP:  25;

WASKISH        SUNNY     25  18  74 W3        30.06S
BIG FORK       SUNNY     27  18  69 CALM      30.06F
LONGVILLE      CLOUDY    28  19  69 CALM      30.06F
GRAND RAPIDS   SUNNY     27  20  75 SE5       30.09F WCI  22
CRANE LAKE     SUNNY     25  16  68 CALM      30.09F
ORR            SUNNY     27  16  63 CALM      30.05S
COOK           SUNNY     27  18  69 CALM      30.07F
WALKER         FAIR      24  17  75 E5        30.05F WCI  18
$$
MNZ012-019>021-037-161900-
   Northeast Minnesota

CITY           SKY/WX    TMP DP  RH WIND       PRES   REMARKS
DULUTH         SUNNY     30  21  69 NW6       30.08F WCI  24
6HR MIN TEMP:  14; 6HR MAX TEMP:  30;

ELY            SUNNY     28  19  69 SW5       30.06F WCI  23
HIBBING        SUNNY     16  14  92 SE3       30.08F FOG
EVELETH        SUNNY     20  18  92 CALM      30.09F
DULUTH HARBOR  SUNNY     27  19  74 CALM      30.14F
TWO HARBORS    SUNNY     34  25  69 W9        30.08F WCI  26
SILVER BAY     SUNNY     34  23  64 CALM      30.07F
GRAND MARAIS     N/A     33  25  72 SW7       30.11F WCI  27
G MARAIS ARPRT SUNNY     32  12  43 CALM      30.06F
$$
MNZ029>031-032-039>041-046>048-054>057-064-161900-
   West Central Minnesota

CITY           SKY/WX    TMP DP  RH WIND       PRES   REMARKS
FERGUS FALLS   CLOUDY    19  16  86 CALM      30.13F
WHEATON        CLOUDY    23  18  80 N6        30.11S WCI  16
MORRIS         CLOUDY    21  16  79 SE8       30.07F WCI  12
ALEXANDRIA     CLOUDY    22  16  78 SE6       30.07F WCI  14
ELBOW LAKE     FAIR      21  16  81 CALM      30.08F HAZE
WADENA         MIX PCPN  18  16  93 CALM      30.06F
GLENWOOD       CLOUDY    21  18  86 CALM      30.08F
APPLETON       CLOUDY    19  12  73 CALM      30.09F
ORTONVILLE     CLOUDY    18  12  79 CALM      30.08F
MADISON        CLOUDY    23  18  80 CALM      30.08F
WILLMAR        PTSUNNY   25  25 100 CALM      30.09F
$$
MNZ033>034-036-042>043-049>051-058-059-161900-
   Central Minnesota

CITY           SKY/WX    TMP DP  RH WIND       PRES   REMARKS
ST CLOUD       CLOUDY    21  19  92 SE3       30.11F
6HR MIN TEMP:   3; 6HR MAX TEMP:  21;

SAUK CENTRE    FAIR      18  17  93 SE3       30.09F
PAYNESVILLE    CLOUDY    25  23  91 CALM      30.09F
AITKIN         CLOUDY    28  18  64 CALM      30.07F
PINE RIVER     CLOUDY    21  18  86 CALM      30.10F FOG
BRAINERD       CLOUDY    22  19  89 CALM      30.09F FOG
STAPLES        CLOUDY    21  16  79 S5        30.08S WCI  15
LONG PRAIRIE   FAIR      19  18  93 CALM      30.08F
LITTLE FALLS   CLOUDY    23  21  93 CALM      30.11F
LITCHFIELD     CLOUDY    28  23  80 E5        30.10F WCI  23
BUFFALO        CLOUDY    28  21  72 CALM      30.12F
MAPLE LAKE     CLOUDY    27  27  97 CALM      30.11F FOG
HUTCHINSON     FOG       26  25  97 E7        30.11F VSB 3/4 WCI  18
$$
MNZ037-044-045-052-053-161900-
   East Central Minnesota

CITY           SKY/WX    TMP DP  RH WIND       PRES   REMARKS
PRINCETON      CLOUDY    25  21  86 CALM      30.12F
MORA           CLOUDY    21  16  79 S5        30.14F WCI  15
CAMBRIDGE      CLOUDY    27  16  63 CALM      30.11F
RUSH CITY      CLOUDY    25  18  74 S3        30.14F
MOOSE LAKE     CLOUDY    25  19  80 S5        30.10F WCI  19
HINCKLEY       FAIR      23  21  93 S3        30.13F
CLOQUET        CLOUDY    27  18  69 CALM      30.09F
MCGREGOR       SUNNY     27  23  86 CALM      30.09F
$$
MNZ071>073-080-081-089-090-097-098-161900-
   Southwest Minnesota

CITY           SKY/WX    TMP DP  RH WIND       PRES   REMARKS
MONTEVIDEO     CLOUDY    28  19  69 CALM      30.09F
GRANITE FALLS  CLOUDY    28  23  81 SE5       30.09F WCI  23
CANBY            N/A     30  22  72 CALM      30.07F
MARSHALL       CLOUDY    33  22  63 CALM      30.07F
REDWOOD FALLS  CLOUDY    28  22  78 E3        30.08F
OLIVIA         CLOUDY    30  27  86 SE6       30.08F WCI  24
PIPESTONE      CLOUDY    34  25  69 E5        30.02F WCI  30
WINDOM         CLOUDY    28  27  93 NE5       30.05F FOG     WCI  23
WORTHINGTON    CLOUDY    29  26  89 NE9       30.04F WCI  20
JACKSON        CLOUDY    28  28 100 NE8       30.04F FOG     WCI  20
TRACY          CLOUDY    29  23  77 CALM      30.06F
SLAYTON        CLOUDY    28  24  83 NE6       30.06F WCI  22
$$
MNZ065>067-074>077-082>085-091>093-161900-
   South Central Minnesota

CITY           SKY/WX    TMP DP  RH WIND       PRES   REMARKS
MANKATO        CLOUDY    30  26  85 NE6       30.08F WCI  24
NEW ULM        CLOUDY    28  27  93 CALM      30.09F FOG
ST JAMES       CLOUDY    28  27  93 NE6       30.08F WCI  22
FAIRMONT       CLOUDY    30  27  88 N7        30.05F FOG     WCI  23
GLENCOE        CLOUDY    27  26  94 NE6       30.10F FOG     WCI  21
FARIBAULT        N/A     28  25  86 N5        30.09F WCI  23
OWATONNA       CLOUDY    28  25  86 E7        30.08F WCI  21
WASECA         CLOUDY    30  27  86 NE8       30.08F WCI  23
ALBERT LEA     CLOUDY    32  30  93 E7        30.05F FOG     WCI  26
$$
MNZ078>079-086>088-094>096-161900-
   Southeast Minnesota

CITY           SKY/WX    TMP DP  RH WIND       PRES   REMARKS
ROCHESTER      CLOUDY    30  27  88 NE8       30.08F WCI  22
6HR MIN TEMP:  23; 6HR MAX TEMP:  30;

RED WING       CLOUDY    23  16  74 CALM      30.13F
STANTON        CLOUDY    26  19  73 N6        30.10F WCI  19
DODGE CENTER   CLOUDY    28  25  86 CALM      30.07F
WINONA         CLOUDY    28  21  74 CALM      30.15F
AUSTIN         CLOUDY    32  28  86 E10       30.05F FOG     WCI  24
PRESTON        CLOUDY    29  27  92 E7        30.07F FOG     WCI  22
$$
ABBREVIATIONS USED IN REMARKS
   TC - TEMPERATURES IN CELSIUS
  WCI - WIND CHILL INDEX
   HX - HEAT INDEX
  VSB - VISIBILITY
$$




USA.gov is the U.S. government's official web portal to all federal, state and local government web resources and services.